Location: Castle
(40.7167°S, 175.9500°E)
Time: 03:53:42
(UTC+00:00)

Cosmos 1833 Rocket - Pass Details

Date: 04 August 2024
Orbit: 830 x 840 km, 71.0° (Epoch: 07 September)

Event Time Altitude Azimuth Distance (km) Brightness Sun altitude
Exits shadow 18:04:12 - 203° (SSW) 3,439 5.6 -14.3°
Rises 18:04:16 0° 203° (SSW) 3,410 5.5 -14.3°
Reaches altitude 10° 18:06:45 10° 200° (SSW) 2,469 4.8 -13.8°
Maximum altitude 18:12:25 75° 114° (ESE) 871 2.9 -12.8°
Drops below altitude 10° 18:18:01 10° 28° (NNE) 2,442 5.7 -11.8°
Sets 18:20:27 0° 26° (NNE) 3,369 6.4 -11.3°
